Location: Bemmer
(51.5498°N, 5.6249°E)
Time: 17:55:09
(UTC+00:00)

CSL-04 Debris - Pass Details

Date: 03 March 2021
Orbit: 826 x 848 km, 98.9° (Epoch: 13 April)

Event Time Altitude Azimuth Distance (km) Brightness Sun altitude
Rises 18:24:21 0° 159° (SSE) 3,375 7.1 -10.5°
Reaches altitude 10° 18:26:42 10° 159° (SSE) 2,448 6.4 -10.9°
Maximum altitude 18:32:08 83° 72° (ENE) 855 4.2 -11.8°
Drops below altitude 10° 18:37:39 10° 346° (NNW) 2,479 6.9 -12.6°
Sets 18:40:02 0° 345° (NNW) 3,421 7.6 -13.0°
